This is the latest recevied weather packets stored in our database for station/object EA4URC-10. If no packets are shown the sender has not sent any weather packets the latest 10 day(s).
| Time | Temp. | Humidity | Pressure | Rain* | Wind** | Luminosity | Snow |
|---|---|---|---|---|---|---|---|
| 1787980183 | 13.89° C | 54% | 1036.7 hPa | - | - | - | - |
| 1787978382 | 13.89° C | 54% | 1036.7 hPa | - | - | - | - |
| 1787976582 | 13.89° C | 54% | 1036.6 hPa | - | - | - | - |
| 1787974781 | 13.33° C | 59% | 1036.6 hPa | - | - | - | - |
| 1787972980 | 12.78° C | 62% | 1036.4 hPa | - | - | - | - |
| 1787971185 | 12.78° C | 62% | 1036.5 hPa | - | - | - | - |
| 1787969385 | 13.33° C | 58% | 1036.4 hPa | - | - | - | - |
| 1787967584 | 13.33° C | 54% | 1036.6 hPa | - | - | - | - |
| 1787965783 | 13.33° C | 51% | 1036.8 hPa | - | - | - | - |
| 1787963983 | 13.33° C | 50% | 1036.9 hPa | - | - | - | - |
| 1787962182 | 13.89° C | 49% | 1037.1 hPa | - | - | - | - |
| 1787960382 | 14.44° C | 47% | 1037.4 hPa | - | - | - | - |
| 1787958582 | 15° C | 47% | 1037.4 hPa | - | - | - | - |
| 1787956781 | 15° C | 47% | 1037.4 hPa | - | - | - | - |
| 1787954981 | 15° C | 46% | 1037.5 hPa | - | - | - | - |
| 1787953180 | 15° C | 44% | 1037.5 hPa | - | - | - | - |
| 1787951379 | 15.56° C | 42% | 1037.3 hPa | - | - | - | - |
| 1787949585 | 15.56° C | 40% | 1037.4 hPa | - | - | - | - |
| 1787947785 | 16.11° C | 39% | 1037.2 hPa | - | - | - | - |
| 1787945984 | 16.11° C | 38% | 1036.7 hPa | - | - | - | - |
| 1787944183 | 16.67° C | 35% | 1036.4 hPa | - | - | - | - |
| 1787942383 | 17.78° C | 32% | 1036.2 hPa | - | - | - | - |
| 1787940582 | 19.44° C | 29% | 1036.2 hPa | - | - | - | - |
| 1787938782 | 21.67° C | 23% | 1036.3 hPa | - | - | - | - |
| 1787936981 | 21.11° C | 23% | 1036.3 hPa | - | - | - | - |
* Rain since midnight (hover to see other rain measurements)
** Current wind speed in m/s (hover to see current wind gust speed)